CZ-4C R/B, 40112

Orbit data source: Space-Track

CZ-4C R/B, 40112 is space debris in LEO originally from a launch on Sat, 09 Aug 2014 UTC launched from the Jiuquan Satellite Launch Center, China (JSC). Debris objects in space refer to the collection of defunct objects orbiting the Earth. Examples of debris include non-operational satellites, rocket bodies, and fragments generated from explosions, collisions, or faulty payload assembly.

Loading next visibility...
Identifier
40112, 2014-047D
Orbit
LEO
Country
Flag of CNCN / PRC
Related business
Manufacturer
SAST
Mission
Spacecraft
Bus & Motor
CZ-4 STAGE 3, Unknown motor
Mass
~1,000 kg wet, ~1,000 kg dry
Launch date (UTC)
2014-08-09 (11 years ago)
Launch vehicle
Unknown
Launch site
Jiuquan Satellite Launch Center, China (JSC)
Object type
Payload
Rocket body
Debris
Shape & HBR
Cyl, 1.4 m
Radar Cross Section
20.385 m², Large (>1 m²)

Expand to show TLE details & history
Last TLE update: 9 hours ago

TLE from 9 hours ago
0 CZ-4C R/B
1 40112U 14047D   25243.17609312  .00000065  00000-0  73972-4 0  9992
2 40112  63.4167 324.7302 0532559 359.7845   0.2886 13.70179177553064
Epoch: 2025-08-31T04:13Z
TLE epoch observation values (Epoch: 2025-08-31T04:13:34.445Z)
Latitude
-0.00002°
Longitude
-78.26313°
Altitude
607.821 km
Speed
7.754 km/s
True Right ascension
21h 38m 55s
True Declination
0° 00' 00"
Sunlit
Object was in full shadow at epoch
Visualization orbit readout
Latitude
Unknown
Longitude
Unknown
Altitude
Unknown
Speed
Unknown
Apparent Right ascension
Unknown
Apparent Declination
Unknown
Sunlit
N/A
Visualization observer readout
Local Sidereal Time
05:11:08
Azimuth
Unknown
Elevation
Unknown
Doppler factor
Unknown
Orbital elements
Apogee altitude
1,390.544 km
Perigee altitude
604.927 km
Semi-major axis
7,375.873 km
Eccentricity
0.05326
Inclination
63.4167°
RAAN
324.7302°
Arg. of periapsis
359.7845°
True anomaly
0.32152°
Mean anomaly
0.2886°
Eccentric anomaly
0.30483°
Mean motion
3.42628 °/min
Orbital period
105.07 mins
BSTAR
0.000073972
Loading maneuver chart data...
Computing Atmospheric mass density...
Loading historical data...
Loading historical data...
Loading historical data...
Loading historical data...
Loading historical data...
Loading historical data...
Loading historical data...

Documentation

Showing up to 5 results
|